SDM232 USMM-UNOO

Flight info

Callsign SDM232
Flight time 1h 32m
Altitude 39000
Route DIGLU3J DIGLU R706 POGIR POGIR6A
Aircraft B77W/H-SDE1E2E3FGHIJ2J3J4J5M1RWXY/LB1D1

Departure

Time 2026-04-30 17:55
Airport Nadym Airport (USMM)

Arrival

Time 2026-04-30 19:27
Airport Omsk Central Airport (UNOO)
Time Latitude Longitude Altitude Speed Heading
2026-04-30 17:39 65.48123 72.69317 67 ft 0 kts 247°
2026-04-30 17:41 65.48114 72.69263 61 ft 0 kts 247°
2026-04-30 17:46 65.48110 72.69255 67 ft 2 kts 226°
2026-04-30 17:47 65.48084 72.69311 67 ft 2 kts 96°
2026-04-30 17:48 65.48119 72.69585 67 ft 0 kts 67°
2026-04-30 17:49 65.48129 72.69643 60 ft 11 kts 67°
2026-04-30 17:50 65.48414 72.69658 61 ft 16 kts 336°
2026-04-30 17:51 65.48724 72.69342 63 ft 16 kts 337°
2026-04-30 17:52 65.49034 72.69027 60 ft 16 kts 337°
2026-04-30 17:53 65.49298 72.68709 63 ft 2 kts 55°
2026-04-30 17:54 65.49247 72.68810 64 ft 3 kts 156°
2026-04-30 17:55 65.46437 72.71558 1572 ft 166 kts 169°
2026-04-30 17:56 65.40937 72.67307 3556 ft 249 kts 180°
2026-04-30 17:57 65.35588 72.68890 6294 ft 264 kts 174°
2026-04-30 17:58 65.29994 72.70534 9065 ft 276 kts 174°
2026-04-30 17:59 65.21713 72.72927 11246 ft 348 kts 175°
2026-04-30 18:00 65.11532 72.75848 15058 ft 380 kts 175°
2026-04-30 18:00 65.03511 72.78173 17873 ft 396 kts 176°
2026-04-30 18:01 64.97962 72.79752 19623 ft 407 kts 176°
2026-04-30 18:02 64.89336 72.81631 21985 ft 422 kts 179°
2026-04-30 18:02 64.80411 72.83227 24112 ft 436 kts 179°
2026-04-30 18:03 64.71184 72.84962 25980 ft 450 kts 179°
2026-04-30 18:04 64.61717 72.86760 27640 ft 463 kts 179°
2026-04-30 18:05 64.48661 72.89223 29515 ft 477 kts 179°
2026-04-30 18:06 64.35325 72.91714 31259 ft 483 kts 179°
2026-04-30 18:07 64.21888 72.94194 33014 ft 484 kts 179°
2026-04-30 18:08 64.11850 72.96029 34235 ft 484 kts 179°
2026-04-30 18:09 63.98372 72.98478 35708 ft 485 kts 179°
2026-04-30 18:10 63.84915 73.00901 37169 ft 480 kts 179°
2026-04-30 18:11 63.71698 73.03260 38341 ft 481 kts 178°
2026-04-30 18:11 63.61681 73.05039 39039 ft 483 kts 178°
2026-04-30 18:13 63.44671 73.08081 39148 ft 497 kts 178°
2026-04-30 18:14 63.27397 73.11263 39125 ft 494 kts 178°
2026-04-30 18:15 63.06977 73.14947 39149 ft 490 kts 178°
2026-04-30 18:16 62.93383 73.17357 39156 ft 492 kts 178°
2026-04-30 18:17 62.86561 73.18569 39160 ft 492 kts 178°
2026-04-30 18:18 62.76301 73.20361 39161 ft 493 kts 178°
2026-04-30 18:18 62.69450 73.21561 39157 ft 493 kts 178°
2026-04-30 18:19 62.62641 73.22751 39158 ft 494 kts 178°
2026-04-30 18:19 62.55753 73.23941 39165 ft 492 kts 178°
2026-04-30 18:20 62.48967 73.25107 39165 ft 492 kts 178°
2026-04-30 18:20 62.42139 73.26273 39168 ft 492 kts 179°
2026-04-30 18:21 62.35310 73.27454 39166 ft 491 kts 178°
2026-04-30 18:21 62.28531 73.28606 39176 ft 491 kts 179°
2026-04-30 18:22 62.21697 73.29754 39180 ft 493 kts 179°
2026-04-30 18:22 62.11437 73.31495 39173 ft 492 kts 179°
2026-04-30 18:23 62.04619 73.32634 39176 ft 490 kts 178°
2026-04-30 18:23 61.97852 73.33761 39169 ft 490 kts 179°
2026-04-30 18:24 61.87615 73.34926 39181 ft 491 kts 181°
2026-04-30 18:25 61.80812 73.35544 39174 ft 488 kts 181°
2026-04-30 18:25 61.70604 73.36554 39174 ft 490 kts 180°
2026-04-30 18:26 61.60367 73.37590 39182 ft 490 kts 180°
2026-04-30 18:27 61.50208 73.38618 39181 ft 488 kts 181°
2026-04-30 18:28 61.40045 73.39633 39179 ft 487 kts 180°
2026-04-30 18:28 61.29912 73.40695 39176 ft 485 kts 180°
2026-04-30 18:29 61.17570 73.42277 39182 ft 485 kts 180°
2026-04-30 18:30 61.04070 73.43925 39183 ft 485 kts 180°
2026-04-30 18:31 60.93961 73.45207 39193 ft 485 kts 180°
2026-04-30 18:32 60.83855 73.46470 39194 ft 485 kts 180°
2026-04-30 18:33 60.73805 73.47722 39182 ft 484 kts 180°
2026-04-30 18:33 60.63699 73.48964 39189 ft 484 kts 180°
2026-04-30 18:34 60.53596 73.50178 39179 ft 484 kts 180°
2026-04-30 18:35 60.46872 73.50969 39200 ft 483 kts 180°
2026-04-30 18:35 60.40163 73.51749 39193 ft 483 kts 180°
2026-04-30 18:36 60.30146 73.52909 39183 ft 482 kts 180°
2026-04-30 18:37 60.20107 73.54074 39187 ft 482 kts 180°
2026-04-30 18:37 60.13407 73.54838 39195 ft 482 kts 180°
2026-04-30 18:38 60.06718 73.55615 39196 ft 481 kts 180°
2026-04-30 18:38 60.00032 73.56386 39195 ft 481 kts 180°
2026-04-30 18:39 59.93351 73.57143 39200 ft 481 kts 180°
2026-04-30 18:39 59.86674 73.57902 39189 ft 480 kts 180°
2026-04-30 18:40 59.80002 73.58654 39207 ft 479 kts 180°
2026-04-30 18:40 59.73337 73.59403 39191 ft 479 kts 180°
2026-04-30 18:41 59.66709 73.60140 39185 ft 480 kts 180°
2026-04-30 18:41 59.60039 73.60888 39202 ft 480 kts 180°
2026-04-30 18:42 59.53369 73.61625 39201 ft 480 kts 180°
2026-04-30 18:42 59.43344 73.62745 39182 ft 480 kts 180°
2026-04-30 18:45 59.06640 73.66748 39182 ft 480 kts 180°
2026-04-30 18:46 58.99963 73.67472 39201 ft 480 kts 180°
2026-04-30 18:46 58.93288 73.68183 39180 ft 479 kts 180°
2026-04-30 18:47 58.86622 73.68898 39183 ft 478 kts 180°
2026-04-30 18:47 58.79971 73.69603 39183 ft 479 kts 180°
2026-04-30 18:48 58.73314 73.70310 39177 ft 479 kts 180°
2026-04-30 18:48 58.66673 73.70992 39195 ft 478 kts 180°
2026-04-30 18:49 58.60027 73.71696 39173 ft 478 kts 180°
2026-04-30 18:49 58.53388 73.72395 39176 ft 478 kts 181°
2026-04-30 18:50 58.46774 73.73083 39174 ft 478 kts 180°
2026-04-30 18:50 58.40137 73.73772 39176 ft 478 kts 181°
2026-04-30 18:51 58.33503 73.74458 39174 ft 478 kts 181°
2026-04-30 18:51 58.26855 73.75140 39177 ft 478 kts 181°
2026-04-30 18:52 58.20212 73.75820 39174 ft 478 kts 181°
2026-04-30 18:52 58.13610 73.76494 39170 ft 478 kts 181°
2026-04-30 18:53 58.06968 73.77170 39167 ft 478 kts 181°
2026-04-30 18:53 58.00324 73.77845 39167 ft 478 kts 181°
2026-04-30 18:54 57.93680 73.78516 39166 ft 478 kts 181°
2026-04-30 18:54 57.87025 73.79185 39167 ft 478 kts 181°
2026-04-30 18:55 57.80427 73.79846 39165 ft 478 kts 181°
2026-04-30 18:55 57.70465 73.80781 39156 ft 478 kts 181°
2026-04-30 18:56 57.60487 73.81609 39157 ft 477 kts 181°
2026-04-30 18:57 57.50512 73.82445 39156 ft 478 kts 181°
2026-04-30 18:57 57.43908 73.83005 39156 ft 478 kts 181°
2026-04-30 18:58 57.33922 73.83843 39143 ft 479 kts 181°
2026-04-30 18:59 57.23928 73.84678 39130 ft 479 kts 181°
2026-04-30 19:00 57.10606 73.85785 39128 ft 480 kts 181°
2026-04-30 19:01 56.97254 73.86888 39120 ft 480 kts 181°
2026-04-30 19:02 56.87218 73.87706 38680 ft 485 kts 181°
2026-04-30 19:02 56.80479 73.88257 37386 ft 478 kts 181°
2026-04-30 19:03 56.73901 73.88799 35972 ft 470 kts 181°
2026-04-30 19:03 56.67412 73.89322 34622 ft 463 kts 181°
2026-04-30 19:04 56.61068 73.89835 33456 ft 454 kts 181°
2026-04-30 19:04 56.54801 73.90340 32322 ft 446 kts 180°
2026-04-30 19:05 56.48656 73.90834 31198 ft 438 kts 180°
2026-04-30 19:05 56.42613 73.91315 30091 ft 430 kts 180°
2026-04-30 19:06 56.36716 73.91783 28990 ft 424 kts 180°
2026-04-30 19:06 56.33777 73.92016 28437 ft 420 kts 180°
2026-04-30 19:06 56.27996 73.92473 27354 ft 415 kts 180°
2026-04-30 19:07 56.22287 73.92366 26299 ft 405 kts 188°
2026-04-30 19:07 56.19521 73.91583 25771 ft 400 kts 194°
2026-04-30 19:08 56.14203 73.89147 24735 ft 394 kts 196°
2026-04-30 19:08 56.08918 73.86721 23719 ft 389 kts 196°
2026-04-30 19:08 56.06301 73.85533 23194 ft 386 kts 196°
2026-04-30 19:09 56.01122 73.83195 22183 ft 381 kts 196°
2026-04-30 19:09 55.98558 73.82042 21692 ft 378 kts 196°
2026-04-30 19:09 55.96013 73.80899 21199 ft 376 kts 196°
2026-04-30 19:10 55.90974 73.78643 20219 ft 371 kts 196°
2026-04-30 19:10 55.86019 73.76430 19250 ft 367 kts 196°
2026-04-30 19:11 55.83549 73.75329 18760 ft 365 kts 196°
2026-04-30 19:11 55.78640 73.73144 17794 ft 361 kts 195°
2026-04-30 19:11 55.76205 73.72063 17307 ft 359 kts 195°
2026-04-30 19:12 55.73783 73.70989 16826 ft 358 kts 195°
2026-04-30 19:12 55.71366 73.69918 16338 ft 357 kts 195°
2026-04-30 19:12 55.68963 73.68856 15855 ft 355 kts 195°
2026-04-30 19:13 55.64219 73.66760 14896 ft 352 kts 195°
2026-04-30 19:13 55.59488 73.64672 13943 ft 349 kts 196°
2026-04-30 19:13 55.57158 73.63497 13461 ft 347 kts 198°
2026-04-30 19:14 55.55635 73.62674 13149 ft 346 kts 198°
2026-04-30 19:14 55.53340 73.61414 12674 ft 345 kts 198°
2026-04-30 19:14 55.51057 73.60169 12204 ft 343 kts 198°
2026-04-30 19:14 55.48771 73.58935 11719 ft 342 kts 198°
2026-04-30 19:15 55.46494 73.57717 11254 ft 341 kts 198°
2026-04-30 19:15 55.41985 73.55322 10542 ft 331 kts 197°
2026-04-30 19:15 55.39814 73.54173 10385 ft 321 kts 197°
2026-04-30 19:16 55.37708 73.53059 10241 ft 311 kts 197°
2026-04-30 19:16 55.35733 73.51888 10092 ft 294 kts 206°
2026-04-30 19:16 55.32582 73.47595 9474 ft 285 kts 220°
2026-04-30 19:17 55.31073 73.45337 9126 ft 285 kts 219°
2026-04-30 19:17 55.28045 73.40850 8421 ft 285 kts 219°
2026-04-30 19:17 55.26518 73.38609 8107 ft 284 kts 219°
2026-04-30 19:18 55.23994 73.34920 7555 ft 284 kts 218°
2026-04-30 19:18 55.21971 73.31970 7148 ft 282 kts 218°
2026-04-30 19:18 55.20473 73.29794 6810 ft 275 kts 218°
2026-04-30 19:19 55.19027 73.27692 6362 ft 265 kts 218°
2026-04-30 19:19 55.17633 73.25665 6024 ft 263 kts 218°
2026-04-30 19:19 55.14813 73.21574 5355 ft 263 kts 218°
2026-04-30 19:20 55.13405 73.19545 5020 ft 262 kts 218°
2026-04-30 19:20 55.12003 73.17518 4700 ft 261 kts 218°
2026-04-30 19:20 55.09466 73.13034 3994 ft 261 kts 229°
2026-04-30 19:21 55.08320 73.10630 3659 ft 263 kts 229°
2026-04-30 19:21 55.05910 73.05723 2989 ft 264 kts 228°
2026-04-30 19:22 55.03451 73.01029 2324 ft 257 kts 215°
2026-04-30 19:22 54.98557 73.00818 2016 ft 233 kts 165°
2026-04-30 19:23 54.94506 73.03860 1981 ft 211 kts 125°
2026-04-30 19:24 54.93944 73.08485 1967 ft 189 kts 84°
2026-04-30 19:24 54.94082 73.10710 1994 ft 181 kts 82°
2026-04-30 19:24 54.94520 73.14616 1975 ft 147 kts 77°
2026-04-30 19:25 54.95197 73.19679 1428 ft 141 kts 76°
2026-04-30 19:26 54.95641 73.22998 1056 ft 141 kts 76°
2026-04-30 19:26 54.96085 73.26301 686 ft 141 kts 76°
2026-04-30 19:26 54.96305 73.27956 486 ft 141 kts 77°
2026-04-30 19:27 54.96715 73.31050 316 ft 95 kts 77°
2026-04-30 19:27 54.96839 73.31965 315 ft 8 kts 77°
2026-04-30 19:28 54.96829 73.32052 315 ft 8 kts 136°
2026-04-30 19:28 54.96691 73.32126 313 ft 12 kts 168°
2026-04-30 19:29 54.96521 73.32194 311 ft 11 kts 170°
2026-04-30 19:29 54.96457 73.32134 311 ft 11 kts 242°
2026-04-30 19:30 54.96392 73.31739 317 ft 11 kts 236°
2026-04-30 19:30 54.96306 73.31734 314 ft 2 kts 141°
2026-04-30 19:31 54.96303 73.31810 316 ft 5 kts 99°
2026-04-30 19:31 54.96286 73.31866 314 ft 6 kts 127°
2026-04-30 19:31 54.96273 73.31890 313 ft 0 kts 133°